Temp
15 15 15 15 15 15 15 15 14 14 14 14 14 14 14 14 15 15 16 16 16 16 16 16 17 17 17 17 17 17 17 17 17 17 17 16 16 16 16 16 16 16
15 15 15 15 15 15 15 15 15 14 14 14 14 14 14 14 14 14 15 15 15 15 16 16 16 17 17 17 17 17 17 17 17 17 17 16 16 16 16 16 16 15
15 15 15 15 15 15 15 15 15 15 14 14 14 14 14 14 14 14 14 14 15 15 15 16 16 16 17 17 17 17 17 17 17 17 17 16 16 16 16 16 16 15
16 15 15 15 15 15 15 15 15 15 15 14 14 14 14 14 14 14 14 14 14 14 14 15 16 16 16 16 17 17 17 17 17 17 17 16 16 16 16 16 16 15
16 16 16 15 15 15 15 15 15 15 15 14 14 14 14 14 14 14 14 14 14 14 14 14 15 15 15 15 16 16 17 17 17 17 17 16 16 16 16 16 15 15
16 16 15 15 15 15 15 15 15 15 15 14 14 14 14 14 14 14 14 14 14 14 14 14 14 14 14 15 15 15 16 16 16 16 16 17 16 16 16 16 16 15
16 16 15 15 15 15 15 15 15 15 15 14 14 14 14 14 14 14 14 14 14 14 14 14 14 14 14 14 14 14 15 15 15 15 16 16 16 16 16 16 16 16
16 16 16 15 15 15 15 15 15 15 15 15 15 15 14 14 14 14 14 14 14 14 14 14 14 14 13 13 13 13 14 14 15 15 15 15 16 16 16 16 16 16
15 15 15 15 15 15 15 15 15 15 15 15 15 15 15 15 15 14 14 14 14 14 14 14 14 14 13 13 13 13 13 14 14 14 14 14 15 15 16 16 15 16
15 15 15 15 15 15 15 15 15 15 15 15 15 15 15 15 15 15 15 14 14 14 14 14 14 14 13 13 13 13 13 13 13 14 13 13 14 14 15 16 16 15
15 15 15 15 15 15 15 14 14 15 15 15 15 15 15 15 15 15 15 15 15 14 14 14 14 14 14 13 13 13 13 13 13 13 13 13 13 13 14 15 15 15
15 15 15 15 15 15 14 14 14 14 15 15 15 15 15 15 15 15 15 15 15 14 14 14 14 14 14 13 13 13 13 12 12 12 12 12 13 13 13 14 14 14
15 14 14 14 14 14 14 14 14 14 14 15 15 14 14 14 15 15 15 15 15 14 14 14 13 13 13 13 13 13 12 12 12 12 12 12 12 12 13 13 13 14
14 14 14 14 14 14 14 14 14 14 14 14 14 14 14 14 14 14 14 14 15 14 14 14 13 13 13 12 12 12 12 11 11 11 11 12 12 12 12 12 12 13
14 14 14 14 14 14 14 14 14 14 14 14 14 14 14 14 14 14 14 14 14 14 14 14 14 13 12 12 12 11 11 11 11 10 11 11 11 11 12 11 11 12
14 14 14 14 14 14 14 14 14 14 14 14 14 14 14 13 13 13 13 14 14 14 14 13 13 13 12 12 12 11 11 11 10 10 10 11 11 11 11 11 11 11
14 14 14 14 14 14 14 14 13 13 13 13 13 13 13 13 13 13 13 13 13 14 14 13 13 13 12 11 11 11 10 10 10 10 10 11 11 11 11 11 11 11
14 14 14 14 14 14 14 13 13 13 13 13 13 13 13 13 13 13 13 12 13 13 14 13 13 12 12 11 11 11 10 10 10 10 10 10 10 11 11 11 11 11
14 14 14 14 14 13 13 13 13 13 13 13 13 12 12 13 13 13 12 12 12 13 13 13 13 12 11 11 11 10 10 10 10 10 10 10 10 10 10 10 10 10
13 13 13 13 13 13 13 13 13 13 12 12 12 12 12 12 12 12 12 12 12 12 12 13 13 12 11 11 10 10 10 10 9 10 10 10 10 10 10 10 10 10
13 13 13 13 13 13 13 13 13 12 12 12 12 12 12 12 12 12 11 11 11 11 12 12 12 11 11 10 10 10 10 10 9 9 10 10 10 10 10 10 10 10
13 13 13 12 12 12 12 13 12 12 12 11 11 11 12 12 12 11 10 10 11 11 11 11 11 11 10 10 10 10 10 10 10 9 9 9 10 10 10 10 10 10
12 12 12 12 12 12 12 12 12 12 11 11 11 11 11 12 11 11 11 11 11 11 11 11 11 11 10 10 9 9 9 10 10 9 9 9 10 10 10 10 10 10
12 12 12 12 12 12 12 11 11 11 11 11 11 11 11 11 11 11 11 11 11 11 11 10 10 10 10 9 9 9 9 9 9 9 9 9 9 9 9 9 9 9
12 12 12 11 11 11 11 11 11 11 11 11 11 11 11 11 12 12 12 11 11 11 10 10 11 11 10 9 9 9 9 9 9 9 9 9 9 9 8 8 8 9
12 12 11 11 11 11 11 11 11 11 11 11 11 11 11 11 11 12 12 12 12 11 11 11 11 10 10 9 9 9 9 9 9 9 9 9 9 9 8 8 8 8
Height
838 837 836 834 833 832 830 829 828 827 826 825 824 823 822 821 820 820 820 819 818 818 817 816 816 817 817 817 817 817 817 817 818 818 818 818 818 818 818 818 818 818
839 837 836 834 833 832 830 829 827 826 825 824 823 822 821 820 819 819 818 817 816 815 814 814 814 814 814 814 815 815 815 815 815 815 816 816 816 816 816 816 817 817
839 838 836 835 833 832 830 829 827 826 825 823 822 821 820 819 818 817 815 815 814 813 812 812 811 812 811 811 812 812 812 812 813 813 814 814 814 814 814 815 815 815
839 838 836 835 834 832 830 829 827 826 824 823 822 820 819 817 816 815 813 812 812 810 809 809 809 809 809 808 808 809 809 809 810 811 811 812 812 812 812 813 813 813
839 838 836 835 834 832 830 828 827 825 824 823 821 819 818 816 815 813 812 811 811 808 807 806 806 806 806 805 804 805 805 806 807 808 809 809 810 810 810 810 811 811
839 838 836 835 833 832 830 828 827 825 823 822 820 818 817 815 813 812 811 810 808 807 805 805 804 803 803 802 801 802 802 803 804 805 806 807 808 808 808 808 808 808
838 837 835 834 832 831 829 828 826 824 823 821 819 817 816 814 812 811 809 808 806 805 804 803 802 801 801 800 799 799 800 800 801 802 803 805 805 806 807 807 807 806
838 836 835 833 832 830 828 827 825 824 822 820 818 816 815 812 811 809 807 806 804 803 802 801 800 800 799 798 797 797 797 797 797 798 799 801 802 803 805 806 805 805
837 835 834 832 830 829 827 826 824 823 821 819 817 815 813 811 809 807 805 804 802 801 800 799 798 798 797 796 795 795 794 793 795 795 795 797 799 801 802 804 804 803
836 834 833 831 829 828 826 824 823 821 820 818 816 814 812 810 808 806 804 802 800 799 798 797 796 795 794 793 792 792 792 791 792 792 791 793 796 798 800 801 801 801
835 834 832 830 829 827 825 823 822 820 818 817 815 813 811 809 806 804 802 800 798 797 796 795 794 793 792 791 790 789 789 789 789 789 789 790 793 795 797 799 799 799
834 833 831 829 828 826 824 822 820 819 817 816 814 812 810 807 805 803 801 799 797 795 794 793 792 791 790 789 788 787 787 787 787 786 786 787 789 792 795 796 796 797
833 832 830 829 827 825 823 821 819 818 816 814 813 811 808 806 804 802 799 797 795 793 792 791 790 789 788 787 786 786 786 786 785 784 784 785 786 789 791 792 793 795
833 832 830 828 826 824 822 820 819 817 815 813 812 809 807 805 803 801 798 796 794 792 791 789 788 787 786 785 784 784 784 783 782 782 782 783 784 785 787 789 791 793
832 830 829 827 825 823 821 820 818 816 814 812 810 808 806 804 802 800 797 794 792 790 789 788 786 785 784 783 783 782 782 781 780 780 780 781 783 785 786 788 789 791
831 830 828 826 824 822 821 819 817 815 813 811 809 807 805 803 801 799 796 793 791 789 788 786 785 784 782 781 781 780 780 780 778 778 779 781 782 784 785 786 787 788
830 829 827 825 823 822 820 818 816 814 812 809 807 805 804 801 800 798 795 792 790 788 786 785 784 782 780 779 779 778 778 778 777 777 778 780 780 782 783 784 785 787
829 828 826 824 822 821 819 817 815 813 810 808 806 804 802 800 798 796 794 791 789 787 785 784 782 781 779 778 777 776 776 777 777 777 777 778 779 780 782 783 784 785
829 827 825 823 822 820 818 816 814 811 809 808 806 803 801 799 796 794 792 790 788 786 784 783 781 779 778 777 776 775 775 775 775 776 776 777 778 779 780 781 782 783
828 827 825 823 821 819 817 815 813 811 809 807 805 802 800 797 795 793 791 789 787 785 784 782 780 779 777 776 775 774 773 773 773 774 774 775 776 777 778 779 780 781
828 826 824 823 821 819 817 814 812 810 808 806 804 802 799 796 794 792 790 788 786 784 782 781 779 778 776 775 775 773 772 772 772 772 772 773 773 774 775 776 777 778
828 826 824 822 820 818 816 813 812 810 808 806 803 801 798 795 793 791 789 787 786 784 782 780 779 777 776 775 774 773 772 771 770 770 770 770 770 771 771 773 773 774
827 825 824 822 820 818 816 814 812 809 807 805 802 800 797 795 792 790 789 787 785 784 782 780 778 777 775 774 773 772 771 770 769 768 768 768 767 767 768 770 770 770
827 825 824 822 820 818 815 814 811 809 806 804 802 799 796 794 792 790 788 786 784 783 781 779 778 776 775 773 772 771 770 769 768 767 766 766 765 765 766 767 768 768
826 825 823 821 820 818 816 814 811 808 806 804 801 799 796 793 791 788 786 785 783 781 780 778 777 776 774 773 771 770 769 768 767 766 765 764 763 763 763 764 765 766
825 824 823 821 819 817 815 813 811 808 806 803 800 798 795 793 790 787 785 783 781 780 779 777 776 775 773 771 770 769 768 767 767 766 764 763 763 762 762 762 762 763
Wind_Speed
11 11 11 11 11 11 12 12 12 12 12 13 13 13 13 13 13 14 14 15 16 18 18 17 16 15 15 15 14 14 13 13 13 12 12 12 11 11 11 10 9 8
12 12 12 12 11 12 12 12 12 12 12 13 13 14 14 13 13 14 14 15 17 18 19 19 18 17 17 16 16 16 15 15 14 14 13 13 12 12 12 11 10 9
13 13 13 13 13 13 13 12 12 11 12 12 13 14 15 14 14 14 14 14 17 19 20 19 18 17 17 18 18 17 17 16 16 15 14 14 14 13 12 12 11 11
13 13 12 12 13 13 14 13 13 12 12 12 13 13 14 14 15 15 15 15 18 20 19 17 17 17 17 18 19 19 18 17 17 16 15 15 14 14 14 13 12 12
12 12 12 12 12 13 13 13 13 13 13 14 14 14 14 14 15 15 15 16 18 19 17 16 17 18 18 19 20 21 19 18 17 16 16 16 15 15 15 14 14 14
12 12 12 12 12 12 12 12 12 13 13 14 14 14 14 15 15 15 16 16 17 17 16 16 16 18 19 19 20 21 20 19 19 19 18 18 17 15 15 15 15 15
12 12 12 12 12 12 12 12 12 12 13 13 14 14 14 15 15 15 16 17 17 16 16 16 15 16 18 19 19 20 21 21 22 23 22 19 17 17 16 15 16 16
12 12 12 13 13 12 12 12 12 13 13 14 14 14 15 15 16 16 16 16 17 16 15 15 15 15 17 19 20 21 23 24 23 23 25 23 18 18 18 16 15 16
13 13 13 14 14 13 13 13 13 13 14 14 15 15 15 15 16 17 16 16 17 16 15 15 15 14 16 18 19 20 24 26 24 23 28 30 24 20 20 18 15 16
14 14 14 15 15 14 14 14 14 14 14 14 15 15 16 17 16 17 16 16 17 16 15 15 14 14 15 17 18 19 21 23 23 23 27 31 28 23 20 18 16 16
15 15 15 15 15 15 16 16 15 14 14 15 15 16 17 17 17 17 16 16 17 16 15 15 15 15 14 16 18 19 19 20 23 26 26 27 27 22 18 17 15 15
15 15 15 15 16 16 16 16 15 14 15 16 16 17 18 18 18 18 17 17 17 16 15 14 15 15 15 15 16 18 19 19 22 26 28 28 25 20 18 17 15 15
15 15 15 15 16 17 16 16 15 15 16 17 17 18 18 18 19 19 18 18 17 16 15 14 14 14 14 15 15 16 17 17 19 24 28 30 27 21 17 16 14 14
15 15 15 15 16 17 17 16 17 17 17 18 18 18 18 18 19 20 19 18 17 16 14 14 14 13 13 14 13 14 15 16 18 23 27 30 28 23 18 16 14 13
15 14 15 15 16 17 17 17 18 19 19 19 20 20 19 19 20 21 20 18 17 16 14 13 14 13 13 14 13 13 15 15 17 22 26 28 26 22 20 18 16 14
14 14 15 15 16 16 17 18 19 20 20 21 21 20 20 20 20 20 21 19 17 16 14 12 12 12 14 15 15 14 15 15 14 17 22 25 25 23 21 20 19 18
14 15 16 16 16 17 18 19 20 20 21 21 21 21 20 20 20 20 20 20 18 16 15 13 11 12 15 15 15 15 14 14 13 15 19 22 24 25 23 21 20 20
15 15 16 17 17 18 19 19 20 20 21 21 21 21 20 20 19 19 20 20 18 17 16 14 11 12 15 15 13 14 15 15 16 17 17 18 21 23 23 22 21 21
15 16 17 18 18 19 19 19 20 20 20 20 20 20 20 20 19 18 18 18 17 16 17 15 12 12 14 15 13 12 15 18 21 22 21 20 21 21 21 22 21 21
15 16 17 18 18 19 18 19 19 19 19 19 19 19 20 20 19 18 17 16 15 17 18 16 14 13 14 14 13 12 12 17 23 25 26 26 25 24 24 24 23 23
16 17 17 17 17 18 18 18 18 18 18 18 18 18 19 20 19 17 15 14 14 17 18 17 15 15 14 13 13 12 10 12 20 25 27 27 27 27 27 26 26 27
16 16 16 16 16 17 17 17 18 18 19 18 18 18 18 19 18 16 14 13 14 14 16 17 15 15 15 13 13 14 12 10 13 19 23 26 28 29 28 27 27 29
15 16 15 15 15 16 17 17 18 19 18 18 18 19 18 18 18 17 15 14 13 12 13 15 15 15 16 15 13 14 14 12 11 13 17 21 25 26 26 25 25 26
15 15 15 15 16 17 17 18 18 18 18 18 18 18 18 18 17 17 16 15 14 13 13 14 14 13 15 16 14 13 12 10 9 10 12 15 19 21 21 22 23 23
16 16 16 16 17 17 17 18 18 18 18 18 18 18 18 18 17 17 17 17 16 15 14 13 12 11 13 14 13 11 11 9 7 9 10 11 14 16 18 19 21 21
15 15 15 16 16 17 17 17 17 17 18 19 19 18 18 18 18 17 17 17 16 16 14 12 10 10 12 13 12 11 11 9 8 9 10 10 10 12 13 14 16 18
Wind_Direction
6 1 354 347 343 337 331 325 320 318 314 310 307 302 299 297 293 289 285 283 278 269 263 260 255 250 246 245 241 236 237 235 231 229 224 220 222 220 216 219 222 231
11 7 0 354 347 341 335 326 318 314 312 312 311 307 303 298 293 288 283 282 280 274 267 261 257 252 246 244 241 236 237 236 231 229 226 222 222 221 217 218 218 222
10 6 2 357 351 345 340 333 325 317 311 311 311 310 309 304 295 291 288 286 279 272 268 264 261 255 249 246 243 239 237 237 234 230 227 224 222 220 217 216 215 214
5 3 0 357 353 348 344 340 335 329 322 318 315 313 310 306 300 297 297 294 286 277 271 265 261 257 253 248 244 240 238 238 237 232 229 227 223 219 216 212 212 209
358 357 355 354 352 350 346 344 342 337 332 326 323 319 314 308 304 300 297 292 289 287 280 271 263 258 254 250 244 240 237 236 238 235 232 231 226 220 215 210 209 206
348 347 346 346 346 346 345 343 343 341 337 332 328 324 319 313 306 300 296 290 287 286 283 276 269 263 259 256 250 242 236 236 236 235 235 236 232 225 218 213 209 205
337 335 336 338 337 337 337 337 339 338 336 333 329 326 322 318 311 304 299 294 290 286 282 278 274 270 265 261 256 248 241 238 233 229 230 235 236 231 224 218 213 208
328 327 329 330 327 327 328 330 332 333 333 332 327 326 323 320 316 310 303 298 294 290 285 280 275 271 266 262 260 254 245 240 234 226 224 227 235 237 232 225 218 214
321 322 324 325 322 320 320 322 325 326 329 330 328 326 323 320 318 314 307 302 297 293 287 283 278 272 266 263 262 257 250 244 237 226 220 222 230 236 234 228 220 217
318 318 319 321 321 318 315 316 319 321 324 326 327 326 325 321 318 315 312 305 299 296 291 286 283 278 271 267 263 259 256 251 242 231 221 220 224 228 229 228 221 217
317 317 316 317 319 319 316 315 315 317 320 322 324 326 326 323 318 315 314 309 303 300 296 290 286 285 280 273 266 260 258 255 246 236 222 213 215 217 221 225 222 217
319 318 316 315 316 318 317 316 315 317 318 318 321 324 325 324 320 315 313 312 309 305 301 296 289 288 285 280 275 268 262 256 245 232 220 212 211 210 216 221 218 215
321 320 318 315 315 317 317 316 317 318 317 317 319 321 322 323 322 317 312 312 312 310 305 299 293 289 288 286 283 275 264 256 244 228 217 214 211 207 209 213 212 214
320 319 318 317 316 316 316 317 317 316 316 317 317 317 318 320 322 319 312 309 311 314 310 303 297 291 288 288 284 275 265 255 242 226 214 209 207 203 200 202 208 214
316 317 317 317 316 317 318 318 316 315 316 316 315 315 315 317 320 319 312 307 308 313 313 308 302 294 289 288 283 277 268 253 239 226 216 209 207 207 206 205 210 211
316 317 318 317 317 318 318 317 316 316 316 314 314 315 315 315 317 318 314 306 305 311 314 313 307 299 296 294 288 283 271 253 238 224 215 210 206 207 212 214 216 218
319 319 318 319 319 318 318 317 317 316 315 314 315 316 316 316 316 318 317 310 305 308 313 314 310 302 303 303 296 287 272 251 233 216 211 211 207 209 217 221 221 221
321 319 319 321 320 319 319 318 318 317 317 317 317 317 318 317 316 317 318 314 308 308 313 316 313 302 304 310 307 291 271 248 229 217 213 215 216 218 225 229 226 222
321 320 320 321 321 320 320 318 318 319 320 319 318 318 318 318 316 316 317 316 311 309 313 317 315 308 307 312 312 297 273 250 233 225 222 221 221 225 228 228 226 221
321 321 321 322 321 321 320 318 319 321 321 319 318 319 319 318 318 317 317 318 316 312 313 316 317 315 313 313 312 304 281 256 241 234 232 229 228 231 232 228 225 223
322 321 322 322 321 322 321 320 322 322 320 319 318 318 319 320 321 323 323 321 319 316 315 317 319 320 319 315 311 310 300 267 247 240 238 235 234 235 234 231 228 227
323 322 323 323 323 324 324 324 324 321 320 320 319 318 320 321 324 327 327 323 320 319 316 313 317 322 322 318 312 310 311 296 266 250 243 241 242 240 236 231 228 227
325 325 326 326 326 325 325 325 322 319 320 321 320 320 321 321 322 321 321 320 320 320 318 315 315 320 321 319 312 306 306 305 292 272 258 251 250 247 237 228 226 224
326 327 328 328 327 326 325 324 320 318 320 320 320 321 320 319 318 316 314 315 315 314 320 323 319 317 318 318 315 310 307 303 295 287 275 262 257 254 242 232 230 225
327 328 328 327 326 325 324 323 321 320 321 320 320 320 319 318 318 315 314 313 310 308 312 317 317 313 312 312 312 310 305 299 293 286 278 269 261 253 244 238 235 229
328 327 327 325 324 325 324 322 322 322 322 322 322 321 322 321 318 315 313 311 309 308 306 306 310 314 311 307 305 303 297 293 292 288 279 272 260 246 238 233 227 225